Location: Croydon
(51.3762°N, 0.0982°W)
Time: 02:54:41
(UTC+00:00)

Altair - Pass Details

Date: 22 November 2019
Orbit: 1502 x 1682 km, 47.2° (Epoch: 10 December)

Event Time Altitude Azimuth Distance (km) Brightness Sun altitude
Rises 08:56:30 0° 286° (WNW) 4,654 9.5 9.4°
Reaches altitude 10° 09:00:07 10° 275° (W) 3,685 9.1 9.8°
Maximum altitude 09:07:16 26° 224° (SW) 2,682 9.0 10.5°
Drops below altitude 10° 09:14:35 10° 173° (S) 3,768 10.8 11.2°
Sets 09:18:21 0° 161° (SSE) 4,779 11.7 11.5°
